Location: Unspecified
(38.0989°N, 0.6729°W)
Time: 17:37:43
(UTC+02:00)

Tiangong 2 - Visible Passes

Search period start: 21 July 2018 00:00
Search period end: 31 July 2018 00:00
Orbit: 386 x 394 km, 42.8° (Epoch: 21 July)

Date Brightness Start Highest point End Pass type
(mag) Time Alt. Az. Time Alt. Az. Time Alt. Az.
21 Jul 2.1 22:05:04 10° WNW 22:08:08 42° NNE 22:11:11 10° E visible
21 Jul 2.7 23:41:57 10° WNW 23:43:47 29° W 23:43:47 29° W visible
22 Jul 1.0 22:44:11 10° WNW 22:47:22 85° SSW 22:48:31 36° ESE visible
23 Jul 2.9 23:23:39 10° W 23:25:35 23° WSW 23:25:35 23° WSW visible
24 Jul 1.7 22:25:40 10° WNW 22:28:44 44° SSW 22:30:23 22° SSE visible
25 Jul 3.6 23:05:58 10° WSW 23:07:31 13° SW 23:07:33 13° SW visible
26 Jul 2.9 22:07:23 10° W 22:09:58 23° SW 22:12:27 11° SSE visible
28 Jul 3.8 21:49:53 10° WSW 21:51:07 12° SW 21:52:20 10° SSW visible
